This is the latest recevied weather packets stored in our database for station/object KN6WGU. If no packets are shown the sender has not sent any weather packets the latest 10 day(s).
| Time | Temp. | Humidity | Pressure | Rain* | Wind** | Luminosity | Snow |
|---|---|---|---|---|---|---|---|
| 1787856104 | 26.67° C | 70% | 1008 hPa | 0 mm | - | 625 W/m² | - |
| 1787855799 | 26.11° C | 71% | 1008 hPa | 0 mm | - | 642 W/m² | - |
| 1787855494 | 26.11° C | 71% | 1007.7 hPa | 0 mm | - | 644 W/m² | - |
| 1787855190 | 26.11° C | 71% | 1008 hPa | 0 mm | - | 646 W/m² | - |
| 1787854885 | 26.11° C | 72% | 1008.1 hPa | 0 mm | - | 649 W/m² | - |
| 1787854585 | 26.11° C | 72% | 1007.9 hPa | 0 mm | - | 651 W/m² | - |
| 1787854279 | 26.11° C | 71% | 1007.9 hPa | 0 mm | - | 652 W/m² | - |
| 1787853975 | 26.11° C | 70% | 1007.8 hPa | 0 mm | - | 657 W/m² | - |
| 1787853674 | 25.56° C | 68% | 1007.8 hPa | 0 mm | - | 656 W/m² | - |
| 1787853368 | 25.56° C | 74% | 1007.8 hPa | 0 mm | - | 632 W/m² | - |
| 1787853062 | 25.56° C | 71% | 1007.9 hPa | 0 mm | - | 187 W/m² | - |
| 1787852757 | 25.56° C | 71% | 1007.9 hPa | 0 mm | - | 180 W/m² | - |
| 1787852456 | 25.56° C | 69% | 1007.7 hPa | 0 mm | - | 214 W/m² | - |
| 1787852155 | 25.56° C | 73% | 1007.8 hPa | 0 mm | - | 113 W/m² | - |
| 1787851851 | 25° C | 72% | 1008 hPa | 0 mm | - | 94 W/m² | - |
| 1787851549 | 25° C | 74% | 1007.9 hPa | 0 mm | - | 191 W/m² | - |
| 1787851244 | 25° C | 72% | 1007.7 hPa | 0 mm | - | 188 W/m² | - |
| 1787850939 | 24.44° C | 75% | 1007.9 hPa | 0 mm | - | 82 W/m² | - |
| 1787850631 | 24.44° C | 77% | 1007.9 hPa | 0 mm | - | 294 W/m² | - |
| 1787850330 | 24.44° C | 80% | 1008 hPa | 0 mm | - | 187 W/m² | - |
| 1787850021 | 24.44° C | 82% | 1007.9 hPa | 0 mm | - | 76 W/m² | - |
| 1787849720 | 23.89° C | 83% | 1007.8 hPa | 0 mm | - | 71 W/m² | - |
| 1787849410 | 23.89° C | 82% | 1008 hPa | 0 mm | - | 82 W/m² | - |
| 1787849108 | 23.89° C | 81% | 1008 hPa | 0 mm | - | 67 W/m² | - |
| 1787848803 | 23.89° C | 82% | 1007.7 hPa | 0 mm | - | 70 W/m² | - |
* Rain latest hour (hover to see other rain measurements)
** Current wind speed in m/s (hover to see current wind gust speed)